Location: L�gaud
(45.7115°N, 1.7775°E)
Time: 19:26:42
(UTC+00:00)

Meteor 1-13 Rocket - Pass Details

Date: 03 March 2021
Orbit: 830 x 913 km, 81.3° (Epoch: 13 April)

Event Time Altitude Azimuth Distance (km) Brightness Sun altitude
Rises 19:35:49 0° 349° (N) 3,557 7.8 -20.5°
Reaches altitude 10° 19:38:19 10° 350° (N) 2,608 7.0 -20.9°
Maximum altitude 19:44:18 84° 79° (ENE) 914 4.2 -21.9°
Enters shadow 19:48:37 19° 168° (SSE) 1,984 5.9 -22.6°
